Flag for France Weather past 2 weeks in Le Havre, France

Now
54 °F

Mostly cloudy.


Feels Like: 49 °F
Forecast: 49 / 62 °F
Wind: 15 mph from West

Location: La Heve

Current Time: May 29, 2015 at 9:32:53 PM

Latest Report: May 29, 2015 at 9:00 PM


Visibility: N/A

Pressure: 29.89 "Hg

Humidity: 82%

Dew point: 48 °F

Location of Le HavreLocation

Historic Weather in Le Havre — Graph

°F

Le Havre temperature yesterday

Maximum temperature yesterday: 59 °F (at 2:00 PM)
Minimum temperature yesterday: 52 °F (at 11:30 PM)
Average temperature yesterday: 55 °F

Past Weeks' High & Low Weather Summary

 TemperatureHumidityPressure
High64 °F (May 27, 5:00 PM)100% (May 16, 8:00 AM)30.39 "Hg (May 16, 8:00 AM)
Low46 °F (May 15, 12:30 AM)52% (May 27, 5:00 PM)29.77 "Hg (May 18, 4:30 PM)
Average53 °F81%30.14 "Hg
* Reported May 14 8:00 PM — May 29 8:30 PM, Le Havre, Weather by CustomWeather, © 2015

Note: Actual official high and low records may vary slightly from our data, if they occured in-between our weather recording intervals... More about our weather records

Advertising

Le Havre weather history for previous 24 hours

 ConditionsComfort  
Time TempWeatherWind HumidityBarometerVisibility
8:30 PM
Fri, May 29
54 °FPartly sunny.20 mph82%29.86 "HgN/A
8:00 PM52 °FLight rain. Partly sunny.23 mph94%29.86 "Hg6 mi
7:30 PM54 °FLight rain. Broken clouds.22 mph94%29.86 "Hg4 mi
7:00 PM55 °FRain. Mostly cloudy.20 mph82%29.83 "HgN/A
6:30 PM55 °FPartly sunny.17 mph82%29.86 "HgN/A
6:00 PM54 °FLight rain. Fog.24 mph88%29.86 "Hg2 mi
5:30 PM55 °FMostly cloudy.21 mph77%29.86 "HgN/A
5:00 PM54 °FLight rain. Overcast.23 mph82%29.86 "HgN/A
4:30 PM55 °FOvercast.20 mph72%29.86 "HgN/A
4:00 PM55 °FMostly cloudy.22 mph72%29.86 "HgN/A
3:30 PM55 °FMostly cloudy.21 mph72%29.86 "HgN/A
3:00 PM55 °FPartly sunny.21 mph67%29.86 "HgN/A
2:30 PM55 °FPartly sunny.21 mph72%29.89 "HgN/A
2:00 PM55 °FMostly cloudy.18 mph72%29.89 "HgN/A
1:30 PM55 °FMostly cloudy.17 mph67%29.89 "HgN/A
1:00 PM55 °FMostly cloudy.17 mph72%29.89 "HgN/A
12:30 PM55 °FMostly cloudy.17 mph72%29.89 "HgN/A
12:00 PM55 °FBroken clouds.15 mph72%29.89 "HgN/A
11:30 AM55 °FBroken clouds.16 mph72%29.92 "HgN/A
11:00 AM54 °FPartly sunny.13 mph77%29.92 "HgN/A
10:30 AM54 °FOvercast.13 mph77%29.92 "HgN/A
10:00 AM54 °FCloudy.15 mph77%29.92 "HgN/A
9:30 AM54 °FPartly sunny.14 mph77%29.92 "HgN/A
9:00 AM54 °FScattered clouds.14 mph77%29.92 "HgN/A
8:30 AM52 °FScattered clouds.14 mph77%29.92 "HgN/A
8:00 AM52 °FScattered clouds.15 mph77%29.92 "HgN/A
7:30 AM52 °FPartly sunny.15 mph77%29.92 "HgN/A
7:00 AM50 °FPartly sunny.14 mph82%29.92 "HgN/A
6:30 AM50 °FPassing clouds.13 mph82%29.92 "HgN/A
6:00 AM50 °FMostly cloudy.14 mph76%29.95 "HgN/A
5:30 AM50 °FPassing clouds.14 mph82%29.95 "HgN/A
5:00 AM50 °FPassing clouds.15 mph82%29.95 "HgN/A
4:30 AM52 °FPartly cloudy.14 mph77%29.95 "HgN/A
4:00 AM52 °FPartly cloudy.13 mph82%29.95 "HgN/A
3:30 AM52 °FPartly cloudy.14 mph77%29.98 "HgN/A
3:00 AM52 °FPassing clouds.14 mph77%29.98 "HgN/A
2:30 AM52 °FPassing clouds.14 mph77%29.98 "HgN/A
2:00 AM52 °FPassing clouds.13 mph77%29.98 "HgN/A
1:30 AM52 °FPassing clouds.12 mph77%30.01 "HgN/A
12:00 AM52 °FPassing clouds.8 mph82%30.01 "HgN/A
11:30 PM
Thu, May 28
52 °FPassing clouds.9 mph82%30.01 "HgN/A
11:00 PM54 °FPassing clouds.10 mph77%30.04 "HgN/A
10:30 PM54 °FPassing clouds.12 mph77%30.04 "HgN/A
10:00 PM54 °FPartly sunny.9 mph72%30.04 "HgN/A
9:30 PM54 °FMostly cloudy.10 mph72%30.04 "HgN/A
9:00 PM54 °FBroken clouds.9 mph77%30.04 "HgN/A
Weather by CustomWeather, © 2015

See weather overviewHow to use our weather pages